D1 Varsity Boys 5K


Div 1 Varsity Boys 5K Run
Place	LName	FName	Bib	Grade	Team	Time
1	Gonzalez	Juan	1398	12	El Toro	15:22
2	Penaloza	Jose	1606	12	Godinez	15:27
3	Collison	Gabe	1046	11	Crescenta Valley	15:32
4	Medina	Kyle	3597	12	Ventura High	15:33
5	Scranton	Jack	1114	12	Davis Senior	15:36
6	Thies	Jeff	1319	12	Edison	15:36
7	Hamid	Abdul	3128	11	Sheldon	15:38
8	Byrne	Jonny	2376	11	Newbury Park	15:46
9	gonzalez	Benjamin	3638	10	Warren	15:48
10	Morgan	Nick	1411	12	El Toro	15:51
11	Porter	Jeremy	1422	11	El Toro	15:52
12	Malone-White	Evan	2769	12	Redondo Union	15:54
13	Esparza	Aaron	1048	12	Crescenta Valley	15:55
14	Tewodros	Jon	2614	12	Palisades Charter	15:57
15	Tait	William	2778	11	Redondo Union	15:59
16	Chavira	Kevin	615	11	Bullard	16:00
17	Pond	Fredrick	2383	11	Newbury Park	16:02
18	Rodriguez	Jonathan	3641	10	Warren	16:06
19	Wilson	Josh	3186	11	South Pasadena	16:06
20	Kwan	Nathan	1408	12	El Toro	16:06
21	Walker	Ryan	37	12	Clovis	16:07
22	Matteson	Corey	25	12	Clovis	16:07
23	Beatty	Nick	1042	11	Crescenta Valley	16:08
24	Manalo	Matt	1054	11	Crescenta Valley	16:08
25	Welker	Tucker	3675	9	West Ranch	16:09
26	Mazich	Kris	3776	12	Yucaipa	16:11
27	Herold	Dustin	2766	11	Redondo Union	16:14
28	Garcia	Ashton	3652	11	West Ranch	16:15
29	Morello	Connor	26	10	Clovis	16:18
30	Durham	Thomas	3764	10	Yucaipa	16:19
31	Abdo	Tariku	379	10	Berkeley	16:22
32	Suarez	Carlos	2776	10	Redondo Union	16:22
33	Bernal	Andres	3636	10	Warren	16:23
34	Dycus	Garrett	3766	11	Yucaipa	16:23
35	Gaulman	Xavier	3127	11	Sheldon	16:23
36	Klatte	Garrett	2768	12	Redondo Union	16:24
37	Song	Brian	1115	10	Davis Senior	16:24
38	Laca	Jasper	1100	11	Davis Senior	16:25
39	Hernandez	Michael	3639	11	Warren	16:26
40	Humphries	Andrew	3771	11	Yucaipa	16:27
41	Mohr	Paul	1109	12	Davis Senior	16:29
42	Martinez	Michael	1602	12	Godinez	16:29
43	Rockett	DeArrius	1669	12	Highland (Palmdale)	16:30
44	Yamaya	Tomohiro	2783	11	Redondo Union	16:31
45	Allevato	Alex	3482	11	Valencia	16:31
46	Kossick	Cooper	1294	10	Edison	16:32
47	Alva	Zeph	1071	12	Dana Hills	16:32
48	Wilson	Tim	1085	11	Dana Hills	16:32
49	Seward	Jack	1314	11	Edison	16:33
50	Russo	Jacob	27	10	Clovis	16:34
51	Schlachte	Peter	163	12	Amador Valley	16:35
52	Lentz	Nick	3488	11	Valencia	16:35
53	Seckinger	Dalton	1750	10	King	16:36
54	Iraheta	Brandon	3640	11	Warren	16:36
55	O'Sullivan	Steven	1415	11	El Toro	16:36
56	McGrann	Trenten	3425	12	Trabuco Hills	16:37
57	Gotts	Jeremiah	3700	12	Whittier	16:38
58	Beteta	Logan	2374	9	Newbury Park	16:39
59	Arthur	Dan	118	12	Amador Valley	16:40
60	Harned	Sammy	1075	10	Dana Hills	16:40
61	Miller	Pierce	3661	12	West Ranch	16:41
62	Liu	Steven	2592	11	Otay Ranch	16:41
63	Beston	Zach	122	10	Amador Valley	16:41
64	Benrubi	Joey	1083	11	Dana Hills	16:42
65	Lloyd	Austin	412	11	Berkeley	16:42
66	Testerman	John	1117	12	Davis Senior	16:42
67	Gordon	Alex	3770	11	Yucaipa	16:43
68	Radi	Waseem	2772	11	Redondo Union	16:43
69	Santana	Ramiro	3637	12	Warren	16:43
70	Baza	Rodrigo	2578	12	Otay Ranch	16:44
71	Ritter	Nathan	1309	12	Edison	16:45
72	Monges	Gavin	1110	11	Davis Senior	16:45
73	Templeton	Weston	1751	12	King	16:48
74	McKinnon	Conner	151	11	Amador Valley	16:48
75	Cruz	Tim	3762	11	Yucaipa	16:48
76	Garcia	Jesus	1601	12	Godinez	16:50
77	Irvine	Cullen	3178	10	South Pasadena	16:52
78	Coppi	Mason	1072	9	Dana Hills	16:52
79	Baker	Lee	3591	12	Ventura High	16:53
80	Magid	Casey	1053	11	Crescenta Valley	16:53
81	Hamilton	Chris	2380	11	Newbury Park	16:54
82	Johnson	Kyle	1745	10	King	16:54
83	Martin	Sam	627	10	Bullard	16:55
84	Rowen	Daniel	1113	11	Davis Senior	16:55
85	Yin	Christopher	1322	11	Edison	16:55
86	Madrid	Manny	3774	10	Yucaipa	16:56
87	Cornejo	Omar	685	12	California	16:57
88	Izquierdo	Ivan	3702	11	Whittier	16:58
89	Ochoa	Brian	3704	10	Whittier	16:58
90	Morales	Jorge	1604	12	Godinez	16:58
91	Jimenez	Jesse	1663	12	Highland (Palmdale)	16:59
92	Phalen	Rolando	1747	10	King	17:00
93	Rowton	Adam	1060	10	Crescenta Valley	17:00
94	Maroun	Nic	1410	11	El Toro	17:01
95	Dagnachew	Menelik	2605	11	Palisades Charter	17:01
96	Black	Jeffrey	3650	12	West Ranch	17:02
97	Valdez	Jesus	1608	12	Godinez	17:03
98	O'Neill	Jason	421	12	Berkeley	17:03
99	Hernandez	Abdon	3701	11	Whittier	17:03
100	Adams	Alex	2938	12	Salinas	17:04
101	McCabe	Patrick	3424	10	Trabuco Hills	17:04
102	Salas	Randy	3707	11	Whittier	17:05
103	Wikler	Justin	3677	11	West Ranch	17:06
104	Martinez	Martin	2593	10	Otay Ranch	17:06
105	Oh	Kevin	3428	12	Trabuco Hills	17:07
106	Olbes	Calvin	3490	12	Valencia	17:10
107	Ashford	Romara	2603	9	Palisades Charter	17:10
108	Mier	Pedro	1603	9	Godinez	17:11
109	Schiltz	Cory	1313	12	Edison	17:11
110	Garner	Davis	2379	11	Newbury Park	17:12
111	Shieh	Brian	1566	11	Glendale	17:12
112	Newmark	Jeffery	2382	12	Newbury Park	17:13
113	Palacio	Anthony	634	10	Bullard	17:13
114	Adams	Chris	2387	10	Newbury Park	17:14
115	Painter	Ryan	3664	9	West Ranch	17:15
116	Greenberg	Kobi	1074	10	Dana Hills	17:16
117	McCauley	Taylor	3132	11	Sheldon	17:17
118	Owens	Matt	1058	11	Crescenta Valley	17:17
119	Caudle	Andrew	3123	10	Sheldon	17:18
120	Yin	Peter	1323	11	Edison	17:18
121	Hurst	Ian	3489	10	Valencia	17:19
122	Lewis	Conner	23	10	Clovis	17:19
123	Marias	Daniel	1078	9	Dana Hills	17:20
124	Lopez	Manuel	2945	11	Salinas	17:21
125	Morales	Edward	3703	12	Whittier	17:21
126	Werley	Mark	1754	9	King	17:25
127	Hernandez	Alexis	2586	11	Otay Ranch	17:26
128	Urcino	Edwin	1430	11	El Toro	17:27
129	Enriquez	Jacob	1739	11	King	17:28
130	Smith	Camden	1671	9	Highland (Palmdale)	17:29
131	Walsh	Brett	170	9	Amador Valley	17:29
132	Hidalgo	Victor	3176	11	South Pasadena	17:29
133	HUM	NICK	325	11	Ayala	17:30
134	Sikes	Camden	429	11	Berkeley	17:30
135	Steele	Thomas	3183	11	South Pasadena	17:31
136	Robles	Eddie	1607	12	Godinez	17:31
137	Gutzmann	Parker	1742	11	King	17:32
138	Roldan	Josh	697	12	California	17:32
139	Caudle	Zachary	3124	10	Sheldon	17:33
140	Beltran	Gilberto	2579	12	Otay Ranch	17:33
141	Gonzalez	Pedro	3698	11	Whittier	17:33
142	Higdon	Jake	3487	11	Valencia	17:36
143	LAM	LUCAS	327	12	Ayala	17:37
144	DeAnda	Ricky	3594	12	Ventura High	17:38
145	Hiller	Christian	3419	11	Trabuco Hills	17:39
146	Mendoza	Carlos	1667	10	Highland (Palmdale)	17:41
147	Girvan	Seth	132	9	Amador Valley	17:42
148	Battles	Joseph	381	11	Berkeley	17:43
149	Yamamoto	Nick	3485	12	Valencia	17:43
150	Klaucius	Teddy	1664	12	Highland (Palmdale)	17:43
151	Mankins	Neal	149	12	Amador Valley	17:44
152	Dato	Kevin	2606	10	Palisades Charter	17:44
153	Mayorga	Angel	3599	12	Ventura High	17:47
154	Spires	Liam	1567	10	Glendale	17:48
155	Jaksha	@ill	2941	12	Salinas	17:48
156	Brouwer	shane	2604	10	Palisades Charter	17:49
157	Mangu	Animesh	3180	9	South Pasadena	17:50
158	Aceituno	Luis	1733	11	Clovis	17:51
159	Williams	Mike	1569	11	Glendale	17:52
160	Gershman	Tyler	3175	12	South Pasadena	17:53
161	Teng	Austin	2599	10	Otay Ranch	17:53
162	Eckstrom	Daniel	3596	11	Ventura High	17:54
163	Hartman	Austin	3483	10	Valencia	17:54
164	FIRMAN	CHAD	320	12	Ayala	17:56
165	Day	Bradley	1559	12	Glendale	17:57
166	Van Pelt	Nick	1672	12	Highland (Palmdale)	17:59
167	Jaramishian	Eric	623	11	Bullard	17:59
168	ROCHA	DALLAS	335	11	Ayala	18:00
169	Storm	Trent	2948	11	Salinas	18:01
170	Rodela	Robert	638	11	Bullard	18:04
171	Castro	Frankie	1557	12	Glendale	18:05
172	Wegeng	Billy	3673	11	West Ranch	18:05
173	Cardenas	Javier	2942	10	Salinas	18:06
174	McDougald	Ryan	415	11	Berkeley	18:07
175	Saucedo	Jhordy	3133	12	Sheldon	18:07
176	Henandez	Albert	2585	11	Otay Ranch	18:11
177	Fuigni	Ben	2609	11	Palisades Charter	18:18
178	Tarango	Matthew	643	9	Bullard	18:19
179	Salazar	Andy	1670	12	Highland (Palmdale)	18:23
180	Kwong	Clement	3179	11	South Pasadena	18:24
181	Anderson	Michael	1556	10	Glendale	18:29
182	Bradley	Sean	3122	12	Sheldon	18:34
183	Pacba	Tristan	1564	12	Glendale	18:35
184	Amaya	Christian	2602	11	Palisades Charter	18:46
185	Pratty	Steve	2407	12	Newport Harbor	19:02
186	Helfer	Justin	314	10	Ayala	19:03
187	EXTRA #1		2414	0	Newport Harbor	19:20
188	Nathan	Smith	631	11	Bullard	19:26
189	Launder	Jack	2402	11	Newport Harbor	20:42
190	Bell-Bourges	Tice	2390	11	Newport Harbor	21:24


Team Scores

Place	School	Points	Team_Time	Avg_Runner	Finish_Order	Scoring_Order
1	El Toro	97	1:19:47	15:57	1 10 11 20 55 94 128	1 10 11 20 55 92 124
2	Redondo Union	122	1:20:53	16:10	12 15 27 32 36 44 68	12 15 27 32 36 44 67
3	Crescenta Valley	142	1:20:36	16:07	3 13 23 24 80 93 118	3 13 23 24 79 91 114
4	Warren	153	1:21:19	16:15	9 18 33 39 54 69	9 18 33 39 54 68
5	Davis Senior	186	1:21:36	16:19	5 37 38 41 66 72 84	5 37 38 41 65 71 83
6	Yucaipa	196	1:22:03	16:24	26 30 34 40 67 75 86	26 30 34 40 66 74 85
7	Clovis	240	1:22:25	16:29	21 22 29 50 122 158	21 22 29 50 118 152
8	Edison	255	1:22:21	16:28	6 46 49 71 85 109 120	6 46 49 70 84 105 116
9	Newbury Park	268	1:22:33	16:30	8 17 58 81 110 112 114	8 17 57 80 106 108 110
10	Dana Hills	294	1:23:18	16:39	47 48 60 64 78 116 123	47 48 59 63 77 112 119
11	Godinez	302	1:22:47	16:33	2 42 76 90 97 108 136	2 42 75 88 95 104 132
12	West Ranch	307	1:23:13	16:38	25 28 61 96 103 115 172	25 28 60 94 100 111 166
13	Amador Valley	371	1:24:13	16:50	51 59 63 74 131 147 151	51 58 62 73 127 141 145
14	Sheldon	404	1:24:09	16:49	7 35 117 119 139 175 182	7 35 113 115 134 169 176
15	King	418	1:24:43	16:56	53 73 82 92 126 129 137	53 72 81 90 122 125 133
16	Whittier	425	1:24:42	16:56	57 88 89 99 102 125 141	56 86 87 97 99 121 136
17	Valencia	453	1:25:11	17:02	45 52 106 121 142 149 163	45 52 102 117 137 143 157
18	Berkeley	463	1:25:20	17:04	31 65 98 134 148 174	31 64 96 130 142 168
19	Otay Ranch	489	1:25:30	17:06	62 70 104 127 140 161 176	61 69 101 123 135 155 170
20	South Pasadena	505	1:25:48	17:09	19 77 132 135 157 160 180	19 76 128 131 151 154 174
21	Palisades Charter	506	1:25:41	17:08	14 95 107 152 156 177 184	14 93 103 146 150 171 178
22	Ventura High	524	1:25:45	17:09	4 79 144 153 162	4 78 139 147 156
23	Bullard	532	1:26:11	17:14	16 83 113 167 170 178 188	16 82 109 161 164 172 180
24	Highland (Palmdale)	542	1:26:22	17:16	43 91 130 146 150 166 179	43 89 126 140 144 160 173
25	Salinas	697	1:28:20	17:40	100 124 155 169 173	98 120 149 163 167
26	Glendale	732	1:28:54	17:46	111 154 159 165 171 181 183	107 148 153 159 165 175 177
27	Ayala	766	1:30:06	18:01	133 143 164 168 186	129 138 158 162 179
NS	California		NT		87 138	
NS	Newport Harbor		NT		185 187 189 190	
NS	Trabuco Hills		NT		56 101 105 145